User: anonymous   Login
Location: Delta State University
(33.7460°N, 90.7320°W)
Time: 01:56:54
(UTC-05:00)
Language:

Iridium 13 - Orbit

View from above orbital plane
View from above orbital plane
View from above satellite
View from above satellite

Ground track
Ground track

The orbit data is extracted from the following two-line orbital elements,

1 24840U 97030E   15085.21048912  .00000461  00000-0  15766-3 0  9992
2 24840 086.3982 330.4609 0002039 079.4363 072.7962 14.34218347930278
Epoch (UTC): 26 March 2015 05:03:06
Eccentricity: 0.0002039
inclination: 86.3982°
perigee height: 776 km
apogee height: 779 km
right ascension of ascending node: 330.4609°
argument of perigee: 79.4363°
revolutions per day: 14.34218347
mean anomaly at epoch: 72.7962°
orbit number at epoch: 93027

The dashed part of the orbit path shows where the satellite is in the earth's shadow,  

DLR